SCP
0 0 0 0 0 0 0 0 0 0 0 0 0 0 0 0 0 0 0 0 0 0 0 0 0 0 0 0 0 0 0 0 0 0 0 0 0 0 0 0 0 0 0 0 0 0 0 0 0
0 0 0 0 0 0 0 0 0 0 0 0 0 0 0 0 0 0 0 0 0 0 0 0 0 0 0 0 0 0 0 0 0 0 0 0 0 0 0 0 0 0 0 0 0 0 0 0 0
0 0 0 0 0 0 0 0 0 0 0 0 0 0 0 0 0 0 0 0 0 0 0 0 0 0 0 0 0 0 0 0 0 0 0 0 0 0 0 0 0 0 0 0 0 0 0 0 0
0 0 0 0 0 0 0 0 0 0 0 0 0 0 0 0 0 0 0 0 0 0 0 0 0 0 0 0 0 0 0 0 0 0 0 0 0 0 0 0 0 0 0 0 0 0 0 0 0
0 0 0 0 0 0 0 0 0 0 0 0 0 0 0 0 0 0 0 0 0 0 0 0 0 0 0 0 0 0 0 0 0 0 0 0 0 0 0 0 0 0 0 0 0 0 0 0 0
0 0 0 0 0 0 0 0 0 0 0 0 0 0 0 0 0 0 0 0 0 0 0 0 0 0 0 0 0 0 0 0 0 0 0 0 0 0 0 0 0 0 0 0 0 0 0 0 0
0 0 0 0 0 0 0 0 0 0 0 0 0 0 0 0 0 0 0 0 0 0 0 0 0 0 0 0 0 0 0 0 0 0 0 0 0 0 0 0 0 0 0 0 0 0 0 0 0
0 0 0 0 0 0 0 0 0 0 0 0 0 0 0 0 0 0 0 0 0 0 0 0 0 0 0 0 0 0 0 0 0 0 0 0 0 0 0 0 0 0 0 0 0 0 0 0 0
0 0 0 0 0 0 0 0 0 0 0 0 0 0 0 0 0 0 0 0 0 0 0 0 0 0 0 0 0 0 0 0 0 0 0 0 0 0 0 0 0 0 0 0 0 0 0 0 0
0 0 0 0 0 0 0 0 0 0 0 0 0 0 0 0 0 0 0 0 0 0 0 0 0 0 0 0 0 0 0 0 0 0 0 0 0 0 0 0 0 0 0 0 0 0 0 0 0
0 0 0 0 0 0 0 0 0 0 0 0 0 0 0 0 0 0 0 0 0 0 0 0 0 0 0 0 0 0 0 0 0 0 0 0 0 0 0 0 0 0 0 0 0 0 0 0 0
0 0 0 0 0 0 0 0 0 0 0 0 0 0 0 0 0 0 0 0 0 0 0 0 0 0 0 0 0 0 0 0 0 0 0 0 0 0 0 0 0 0 0 0 0 0 0 0 0
0 0 0 0 0 0 0 0 0 0 0 0 0 0 0 0 0 0 0 0 0 0 0 0 0 0 0 0 0 0 0 0 0 0 0 0 0 0 0 0 0 0 0 0 0 0 0 0 0
0 0 0 0 0 0 0 0 0 0 0 0 0 0 0 0 0 0 0 0 0 0 0 0 0 0 0 0 0 0 0 0 0 0 0 0 0 0 0 0 0 0 0 0 0 0 0 0 0
0 0 0 0 0 0 0 0 0 0 0 0 0 0 0 0 0 0 0 0 0 0 0 0 0 0 0 0 0 0 0 0 0 0 0 0 0 0 0 0 0 0 0 0 0 0 0 0 0
0 0 0 0 0 0 0 0 0 0 0 0 0 0 0 0 0 0 0 0 0 0 0 0 0 0 0 0 0 0 0 0 0 0 0 0 0 0 0 0 0 0 0 0 0 0 0 0 0
0 0 0 0 0 0 0 0 0 0 0 0 0 0 0 0 0 0 0 0 0 0 0 0 0 0 0 0 0 0 0 0 0 0 0 0 0 0 0 0 0 0 0 0 0 0 0 0 0
0 0 0 0 0 0 0 0 0 0 0 0 0 0 0 0 0 0 0 0 0 0 0 0 0 0 0 0 0 0 0 0 0 0 0 0 0 0 0 0 0 0 0 0 0 0 0 0 0
0 0 0 0 0 0 0 0 0 0 0 0 0 0 0 0 0 0 0 0 0 0 0 0 0 0 0 0 0 0 0 0 0 0 0 0 0 0 0 0 0 0 0 0 0 0 0 0 0
0 0 0 0 0 0 0 0 0 0 0 0 0 0 0 0 0 0 0 0 0 0 0 0 0 0 0 0 0 0 0 0 0 0 0 0 0 0 0 0 0 0 0 0 0 0 0 0 0
0 0 0 0 0 0 0 0 0 0 0 0 0 0 0 0 0 0 0 0 0 0 0 0 0 0 0 0 0 0 0 0 0 0 0 0 0 0 0 0 0 0 0 0 0 0 0 0 0
0 0 0 0 0 0 0 0 0 0 0 0 0 0 0 0 0 0 0 0 0 0 0 0 0 0 0 0 0 0 0 0 0 0 0 0 0 0 0 0 0 0 0 0 0 0 0 0 0
0 0 0 0 0 0 0 0 0 0 0 0 0 0 0 0 0 0 0 0 0 0 0 0 0 0 0 0 0 0 0 0 0 0 0 0 0 0 0 0 0 0 0 0 0 0 0 0 0
0 0 0 0 0 0 0 0 0 0 0 0 0 0 0 0 0 0 0 0 0 0 0 0 0 0 0 1 1 1 0 0 0 0 0 0 0 0 0 0 0 0 0 0 0 0 0 0 0
0 0 0 0 0 0 0 0 0 0 0 0 0 0 0 0 0 0 0 0 0 0 0 0 0 1 1 1 1 1 1 1 1 1 0 0 0 0 0 0 0 0 0 0 0 0 0 0 0
0 0 0 0 0 0 0 0 0 0 0 0 0 0 0 0 0 0 0 0 0 0 0 0 0 1 1 1 1 1 1 1 1 1 0 0 0 0 0 0 0 0 0 0 0 0 0 0 0
0 0 0 0 0 0 0 0 0 0 0 0 0 0 0 0 0 0 0 0 0 0 0 0 1 1 1 1 1 1 0 0 1 1 0 0 0 0 0 0 0 0 0 0 0 0 0 0 0
0 0 0 0 0 0 0 0 0 0 0 0 0 0 0 0 0 0 0 0 0 0 0 0 1 1 1 1 0 0 0 1 1 1 0 0 0 0 0 0 0 0 0 0 0 0 0 0 0
0 0 0 0 0 0 0 0 0 0 0 0 0 0 0 0 0 0 0 0 0 0 0 0 1 1 1 0 0 0 0 1 1 1 0 0 0 0 0 0 0 0 0 0 0 0 0 0 0
0 0 0 0 0 0 0 0 0 0 0 0 0 0 0 0 0 0 0 0 0 0 0 0 0 0 0 0 0 0 1 1 1 1 0 0 0 0 0 0 0 0 0 0 0 0 0 0 0
Wind_Speed
10 8 5 5 5 3 11 9 8 8 7 8 7 7 8 9 8 7 5 5 5 5 7 8 7 7 8 8 9 9 10 10 10 10 11 10 10 10 10 11 11 12 12 12 12 12 12 11 10
6 4 5 5 2 8 11 9 10 10 7 5 6 6 7 9 8 6 5 5 4 5 6 8 8 7 8 8 9 9 10 9 9 10 10 10 10 10 10 10 11 12 12 11 11 12 12 11 10
5 5 5 2 7 9 9 8 8 8 6 4 5 6 7 7 6 5 6 4 4 6 7 9 8 8 8 9 9 9 9 9 9 9 10 10 10 10 10 10 11 11 11 11 11 11 11 11 10
4 5 5 2 11 11 8 7 6 6 6 6 5 7 7 7 5 6 6 4 5 6 7 10 8 8 8 8 8 9 9 9 9 9 9 9 9 10 10 10 10 11 11 11 11 11 11 11 10
5 4 1 8 12 10 8 6 4 5 6 7 6 8 8 7 6 7 6 5 6 6 7 10 9 8 7 7 8 8 8 8 8 8 9 9 9 9 9 9 10 11 11 10 10 11 10 10 10
5 3 4 9 11 8 7 5 4 6 7 7 6 7 8 6 6 6 6 5 6 6 6 9 9 8 7 7 7 8 8 8 8 8 8 8 8 8 8 9 9 10 10 9 10 10 10 10 9
4 3 6 8 8 8 7 5 5 6 7 7 4 6 7 6 6 5 6 6 6 6 6 6 7 9 9 8 7 7 8 7 8 8 8 8 8 8 8 8 8 9 9 9 9 9 9 9 8
5 2 6 7 7 9 6 4 5 5 7 6 3 4 7 7 6 6 6 7 6 5 5 5 5 6 7 9 9 8 8 7 7 7 7 7 8 8 8 8 9 9 9 9 9 9 9 8 8
6 2 7 8 6 7 6 5 5 4 7 6 6 8 10 10 8 6 6 7 6 6 4 5 5 6 6 6 8 8 8 7 7 7 7 5 4 6 6 9 9 8 8 8 8 8 8 7 8
4 4 8 6 5 5 5 4 4 4 6 7 8 10 11 10 8 7 6 6 6 6 5 4 5 6 6 5 5 4 5 5 4 4 4 4 4 4 6 10 9 8 7 8 8 8 8 6 4
2 4 5 4 4 3 4 4 4 4 5 5 8 10 10 9 7 6 6 5 6 6 5 5 5 5 5 4 4 3 3 3 4 5 4 4 3 4 4 4 6 6 7 5 7 7 4 2 2
1 2 3 2 3 2 4 4 4 4 6 6 8 11 10 9 7 6 6 5 5 5 5 5 5 4 4 3 3 3 3 3 3 4 3 3 2 3 3 2 2 2 2 3 2 2 3 3 2
1 3 3 2 3 4 4 4 5 6 6 7 9 10 9 8 7 6 5 5 4 5 5 5 4 4 4 3 1 3 3 2 4 3 3 2 2 3 3 2 2 1 2 3 2 2 3 3 3
3 1 3 3 4 5 5 5 3 5 6 9 9 9 8 7 7 6 5 5 5 4 4 4 4 4 4 3 2 2 2 2 2 2 3 2 2 2 1 2 1 1 1 2 2 3 2 2 2
2 2 4 3 2 3 4 4 3 6 7 9 9 8 7 7 7 6 5 5 5 5 5 4 5 4 3 2 2 2 2 2 2 2 3 2 2 2 1 2 2 2 2 2 2 2 2 2 2
5 4 3 4 1 2 5 3 6 7 8 8 8 8 8 7 7 6 6 5 5 5 5 4 3 5 4 2 1 1 1 2 2 1 2 2 2 1 1 1 2 1 1 2 2 2 1 1 1
5 1 2 4 2 2 3 2 6 7 7 7 8 8 8 8 7 6 6 6 5 5 6 5 4 3 3 3 2 1 1 1 1 1 1 2 1 1 1 1 1 2 1 2 2 2 1 1 1
1 1 1 2 2 2 2 1 4 6 7 7 7 8 8 8 8 7 6 6 6 6 6 6 5 4 3 3 2 1 1 1 1 1 1 1 1 1 1 2 2 2 2 1 1 1 1 1 1
4 3 2 2 1 2 2 1 3 6 7 7 7 8 8 7 7 7 7 6 7 7 6 6 5 5 4 2 2 2 2 1 1 1 1 1 0 0 1 1 2 1 1 1 2 2 2 2 1
5 4 1 1 1 2 2 2 2 5 7 6 6 7 8 8 8 7 7 7 7 7 7 6 6 5 4 2 1 1 0 0 1 0 1 1 1 1 1 1 2 1 1 2 2 2 2 1 1
6 5 3 2 2 4 4 4 4 5 6 6 7 6 7 7 8 9 8 8 8 8 8 6 6 5 5 3 3 2 2 2 2 1 1 1 1 1 1 0 1 1 2 2 2 3 3 2 2
5 2 4 4 6 3 4 3 4 5 6 7 7 7 7 8 8 8 9 9 9 8 8 7 7 6 5 5 4 4 2 2 1 1 1 1 1 1 1 1 1 2 2 1 3 2 2 3 2
3 2 4 6 7 6 5 5 2 5 5 6 7 7 7 7 8 8 8 8 8 8 7 7 7 6 6 5 5 4 3 2 2 1 1 1 2 2 1 1 1 2 2 2 2 2 3 3 3
3 5 6 8 8 7 3 6 1 2 2 3 5 7 7 8 8 8 8 8 7 7 7 7 7 7 6 6 6 5 4 3 2 2 2 3 2 2 2 2 2 2 2 2 3 3 4 3 3
7 8 6 7 6 3 1 5 1 2 1 2 3 5 7 7 8 8 8 9 8 8 8 7 8 7 7 7 6 5 5 4 4 4 3 3 2 1 1 1 2 2 2 3 3 3 3 3 4
7 9 7 6 5 2 4 4 1 2 0 1 2 4 6 7 8 8 8 8 8 9 9 8 8 8 7 6 5 5 5 4 3 3 3 2 2 2 1 2 2 2 3 3 2 3 3 3 4
7 7 8 8 8 6 3 2 2 2 3 3 4 5 6 6 7 7 8 8 8 8 8 8 8 7 7 7 6 5 5 4 3 3 3 3 2 2 2 2 3 3 3 3 3 2 2 3 4
6 5 6 7 6 7 5 5 2 2 1 2 4 4 5 5 6 7 7 7 7 8 8 8 8 8 7 7 6 5 6 5 4 4 3 2 2 2 2 3 3 3 3 3 4 3 2 3 3
7 7 6 6 7 8 5 1 3 0 0 1 1 3 4 4 5 6 6 7 7 7 7 7 8 8 7 7 6 5 5 5 5 4 4 3 3 3 3 3 3 3 3 3 3 4 3 4 4
6 7 8 8 6 7 8 1 3 1 1 1 1 1 2 3 4 6 6 7 7 7 7 7 7 7 7 6 6 5 5 5 5 5 4 4 4 4 3 3 4 4 4 3 4 4 4 4 4
Wind_Direction
186 190 212 237 234 88 57 51 45 49 57 56 50 47 51 39 27 59 70 60 63 78 90 102 93 95 97 101 105 109 110 113 114 117 121 125 129 135 138 141 143 144 144 143 143 141 138 135 133
180 190 230 243 329 66 63 53 56 54 68 78 67 60 65 64 58 76 86 75 76 77 87 85 92 96 100 105 108 108 109 112 114 114 118 120 122 127 134 139 141 140 141 142 141 139 137 136 134
190 229 262 277 46 52 59 57 65 76 71 57 65 53 47 58 62 72 83 89 83 82 88 86 89 92 97 104 108 108 109 112 114 114 118 121 122 125 128 129 133 135 135 135 138 140 141 141 138
220 226 232 58 65 58 56 63 73 82 77 62 73 77 69 52 52 82 92 90 88 92 96 95 91 94 97 102 106 108 107 108 113 116 117 120 122 125 127 129 132 133 134 134 135 136 140 141 138
242 255 142 78 68 66 64 67 72 57 63 68 70 84 82 72 81 94 95 86 87 89 91 100 96 96 99 102 105 107 108 108 109 112 115 119 121 125 127 131 131 135 136 135 137 136 138 139 136
250 251 62 70 73 73 72 71 72 64 77 81 82 89 85 96 94 94 92 84 86 88 94 109 116 109 105 102 100 105 106 107 107 108 110 115 119 121 125 133 133 135 136 138 143 141 140 140 141
302 5 61 69 77 76 65 61 52 61 72 68 71 89 106 107 97 99 95 89 82 86 97 103 122 130 131 119 109 103 102 104 107 110 114 116 118 121 124 129 132 132 136 139 143 145 146 144 144
298 301 74 70 67 72 77 71 59 52 70 76 67 85 110 119 120 113 106 96 85 82 88 101 111 120 135 130 121 111 107 107 112 114 118 128 134 131 133 138 132 132 137 139 139 139 143 144 144
267 298 59 55 53 75 92 91 87 80 91 81 68 72 100 124 128 122 110 100 95 85 80 80 97 116 117 112 121 131 130 125 142 137 140 155 130 120 128 108 123 130 133 136 136 138 143 150 153
278 25 51 39 42 71 93 83 101 119 103 100 100 100 117 132 134 128 118 112 106 96 89 78 83 99 106 107 117 121 123 118 113 100 119 119 107 106 106 118 126 130 136 144 143 146 164 184 161
323 13 37 45 53 72 100 97 94 102 88 101 123 131 137 135 133 127 118 112 105 105 96 95 92 87 91 107 110 103 103 105 108 103 107 107 116 118 115 124 139 144 155 149 148 167 164 146 127
324 20 26 50 72 88 94 96 87 66 63 95 124 136 141 142 138 132 121 112 108 106 104 96 100 96 84 78 104 113 106 105 104 111 109 109 104 103 98 101 102 118 117 129 145 147 127 132 155
3 33 54 87 115 115 115 101 83 83 91 117 130 139 143 143 140 131 127 127 123 118 111 103 101 104 107 106 99 103 100 96 103 99 101 103 115 109 112 103 101 111 122 138 139 129 133 149 164
17 59 105 113 125 134 125 110 109 103 125 133 142 146 147 146 147 141 146 144 138 130 123 117 120 118 118 121 116 108 114 117 98 103 98 95 93 87 98 115 114 106 108 103 124 130 143 145 141
231 170 134 122 150 153 169 119 114 128 143 146 149 149 150 154 157 160 160 159 151 146 140 138 138 128 125 120 129 131 131 122 110 104 107 101 105 106 129 122 137 112 123 131 135 135 145 158 167
217 212 140 113 152 180 240 94 114 144 160 159 157 158 162 162 170 170 168 165 156 154 150 156 152 138 140 136 128 122 109 103 108 109 107 109 106 127 153 119 115 129 144 136 147 168 159 155 175
206 209 80 115 144 193 242 84 126 161 173 170 170 169 170 168 174 175 180 173 169 166 163 162 162 156 148 144 149 140 127 123 119 109 105 110 129 145 177 128 118 174 154 165 187 147 178 170 185
332 325 71 82 129 223 233 131 140 173 184 182 180 179 179 177 175 175 184 178 174 171 172 169 166 165 170 165 158 154 133 146 147 129 107 118 145 151 207 170 157 185 165 165 157 159 186 217 237
302 292 330 40 112 249 255 238 163 178 194 191 190 187 184 183 173 171 179 180 178 176 176 178 178 167 179 183 192 165 157 155 137 136 109 134 84 129 227 212 155 204 170 182 187 188 184 211 220
257 256 253 105 117 265 272 258 181 181 198 200 195 192 191 186 178 177 180 180 182 180 182 182 186 183 192 182 198 182 145 182 121 89 109 195 180 223 201 191 216 191 179 193 194 208 244 233 234
249 270 288 290 232 218 244 212 180 178 192 197 205 202 198 195 187 182 184 185 186 185 186 186 186 185 194 190 191 182 175 206 172 164 160 185 206 213 310 202 262 229 232 197 211 212 228 249 239
252 283 273 255 252 227 258 275 161 180 192 196 202 201 201 195 190 184 183 186 189 188 184 184 184 186 187 189 198 203 203 198 178 206 161 173 202 217 220 235 263 259 253 215 230 206 231 240 248
293 291 258 257 263 257 237 270 144 176 206 201 198 199 199 192 188 183 185 184 187 186 184 182 182 186 186 192 196 210 216 207 198 193 160 225 197 216 227 233 245 247 253 244 257 225 243 238 258
215 225 224 236 248 247 260 274 232 146 214 211 192 194 196 190 184 180 179 177 183 181 182 181 180 186 187 192 198 208 216 226 238 234 215 223 203 201 203 225 241 250 260 245 245 238 226 243 260
223 239 232 226 228 239 202 266 346 32 321 269 204 185 187 183 180 178 179 180 183 184 183 181 179 185 188 192 199 206 213 216 222 241 233 250 252 224 206 245 243 258 253 251 252 244 257 240 243
237 259 268 278 278 241 194 251 36 48 8 224 199 177 175 180 181 180 181 182 184 184 184 184 181 185 189 192 194 201 208 219 216 221 249 243 264 270 270 245 246 256 255 252 243 250 241 236 245
234 246 277 275 270 270 248 237 191 191 189 178 173 169 173 178 177 178 178 182 182 182 183 184 181 185 190 192 190 195 204 222 227 220 234 246 256 259 231 241 248 253 253 255 251 256 255 241 247
266 256 250 261 272 267 242 243 217 188 194 162 166 168 167 174 174 173 175 179 177 177 176 180 182 185 189 193 197 192 199 206 213 227 234 252 262 278 269 250 245 247 245 241 245 245 236 245 251
204 218 245 262 274 279 271 289 56 144 271 208 163 156 165 178 175 172 175 174 173 171 171 177 181 186 192 196 197 203 199 198 198 205 217 225 237 237 240 245 243 242 245 243 242 251 244 244 250
249 244 242 252 251 261 275 273 86 48 52 40 55 130 161 178 177 172 170 170 173 175 173 175 182 188 191 192 193 198 197 200 205 205 209 215 224 231 229 236 238 242 243 243 243 248 248 247 249